Regional Weather Roundup
Issued by NWS Wakefield, VA

Home | Current Version | Previous Version | Text Only | Print | Product List | Glossary On
Versions: 1 2 3 4 5 6 7 8 9 10 11 12 13 14 15 16 17 18 19 20 21 22 23 24 25 26 27 28 29 30 31 32 33 34 35 36 37 38 39 40 41 42 43 44 45 46 47 48 49 50
000
ASUS41 KAKQ 202010
RWRAKQ

REGIONAL WEATHER ROUNDUP
NATIONAL WEATHER SERVICE WAKEFIELD VA
400 PM EDT WED AUG 20 2014

Note: "fair" indicates few or no clouds below 12,000 feet with no
significant weather and/or obstructions to visibility. * = Denotes
station may not report precipitation (e.g., rain,snow,etc.),
thunder or fog.

VAZ042-051-052>054-056-202100-
NORTHERN VIRGINIA

CITY           SKY/WX    TMP DP  RH WIND       PRES   REMARKS
WASH NATIONAL  PTSUNNY   86  59  39 S14       29.95S
DULLES         TSTM      79  64  61 SE6       29.95S
FORT BELVOIR   MOSUNNY   83  63  50 SE8       29.95F
QUANTICO       MOSUNNY   84  66  54 S12       29.94F
FREDERICKSBRG* SUNNY     89  65  44 SE9       29.93S
STAFFORD*      PTSUNNY   84  67  56 SE7       29.97F
WARRENTON      PTSUNNY   83  72  69 S7        29.93S
CULPEPER*      MOSUNNY  N/A N/A N/A S7        29.94S
MANASSAS*      MOSUNNY   84  68  58 S6        29.93F
LEESBURG*      HVY RAIN  72  72 100 N10G17    29.99R
WINCHESTER     PTSUNNY   79  72  78 SE7       29.95S
$$

VAZ048-049-060>072-079>083-202100-
CENTRAL AND SOUTH CENTRAL VIRGINIA...AND NORTH CENTRAL NORTH CAROLINA

CITY           SKY/WX    TMP DP  RH WIND       PRES   REMARKS
RICHMOND       MOSUNNY   86  67  52 SE8       29.94S
CHESTERFIELD*  PTCLDY    84  64  51 S3        29.96F
HANOVER        MOSUNNY   86  66  51 VRB3      29.96S
TAPPAHANNOCK*  SUNNY     85  48  28 SE5       29.97R
CHARLOTTSVILLE PTSUNNY   84  70  62 S12       29.94S
ORANGE*        MOSUNNY   86  68  54 SE10      29.95F
LOUISA*        MOSUNNY   84  72  65 SE7       29.94S
FARMVILLE*     MOSUNNY   88  72  58 S9        29.93F
SOUTH HILL*    MOSUNNY   84  73  70 W3        30.02S
ROANOKE RAPIDS CLEAR     86  70  58 CALM      29.96F
RALEIGH        PTSUNNY   86  71  60 CALM      29.97R
$$

VAZ088>098-202100-
SOUTHEAST VIRGINIA

CITY           SKY/WX    TMP DP  RH WIND       PRES   REMARKS
NORFOLK        SUNNY     82  68  62 NE12      29.96S
VIRGINIA BEACH MOSUNNY   81  69  67 E10       29.96S
NORFOLK NAVAL  MOSUNNY   83  68  60 NE12      29.97F
WEST POINT*    SUNNY     86  62  43 S9        29.97R
NEWPORT NEWS   SUNNY     86  67  52 E10       29.96S
LANGLEY AFB    SUNNY     82  69  65 E9        29.96S
FORT EUSTIS    SUNNY     83  64  53 S12       29.95S
WILLIAMSBURG*  SUNNY     90  64  43 S6        29.97S
FRANKLIN*      MOSUNNY   86  66  51 NE3       29.95S
WAKEFIELD      MOSUNNY   88  70  55 VRB3      29.95S
$$

VAZ020-022-025-037-045-202100-
WESTERN AND SOUTHWEST VIRGINIA

CITY           SKY/WX    TMP DP  RH WIND       PRES   REMARKS
STAUNTON*      MOSUNNY   89  63  42 S10G17    29.97F
HOT SPRINGS VA PTSUNNY   73  61  65 W12       30.13F
LYNCHBURG      MOSUNNY   84  72  67 CALM      29.99S
DANVILLE       SUNNY     87  71  58 W8        29.97F
MARTINSVILLE   MOSUNNY   89  67  48 SW5       30.01R
ROANOKE        MOSUNNY   85  66  53 VRB5      29.99F
BLACKSBURG     SUNNY     82  70  65 W3        30.06S
DUBLIN*        MOSUNNY   85  67  54 SW7       30.05F
MARION*        PTSUNNY   80  69  68 SW10      30.11S
HILLSVILLE*    MOSUNNY   79  66  65 W5        30.08F
RICHLANDS*     CLEAR     82  69  64 W9        30.09F
WISE*          PTSUNNY   81  66  61 SW7       30.11S
ABINGDON*      CLOUDY    81  71  71 W9        30.08F
$$

MDZ021>025-VAZ099-100-202100-
SOUTHERN MARYLAND AND THE DELMARVA PENINSULA

CITY           SKY/WX    TMP DP  RH WIND       PRES   REMARKS
PATUXENT RIVER MOSUNNY   81  64  56 SE8       29.96S
BAY BRIDGE APT   N/A     82  63  51 SW6       29.96F
LEONARDTOWN    SUNNY     82  61  47 SE6       29.98S
DOVER          SUNNY     81  63  54 SE8       29.97S
GEORGETOWN     SUNNY     82  63  52 E16       29.98S
EASTON         MOSUNNY   86  63  45 S10       30.00R
CAMBRIDGE      SUNNY     84  59  42 SE6       29.95S
SALISBURY      SUNNY     85  62  46 E10       29.97R
OCEAN CITY     SUNNY     78  66  66 E7        29.98F
WALLOPS ISLAND MOSUNNY   81  65  58 E12       29.98S
ACCOMACK*      SUNNY     79  63  57 E3        29.97R
$$

NCZ012>017-030>032-202100-
EASTERN NORTH CAROLINA

CITY           SKY/WX    TMP DP  RH WIND       PRES   REMARKS
ELIZABETH CITY SUNNY     84  70  62 E6        29.96S
AHOSKIE*       PTSUNNY   81  73  76 CALM      29.96S
EDENTON*       MOSUNNY   84  73  68 SE6       29.95S
CURRITUCK*     SUNNY     85  67  54 NE5       29.97S
KILL DEVIL HLS MOSUNNY   81  72  74 NE5       29.96R
MANTEO         MOSUNNY   81  72  74 NE8       29.97R
CAPE HATTERAS  PTSUNNY   81  73  76 VRB5      29.97R
GOLDSBORO      PTSUNNY   87  76  68 E2        29.95R HX  98
WASHINGTON     SUNNY     86  71  60 NW3       29.95F
GREENVILLE     MOSUNNY   88  70  55 NW6       29.98S
NEW BERN       SUNNY     89  71  55 CALM      29.96F HX  95
WILMINGTON     CLOUDY    78  73  84 W7        29.99R
$$

VAZ048-202100-
ELSEWHERE

CITY           SKY/WX    TMP DP  RH WIND       PRES   REMARKS
HARRISBURG PA  LGT RAIN  77  71  82 CALM      29.94F
BALTIMORE      PTSUNNY   83  60  45 SE12      29.95F
ANNAPOLIS      CLOUDY    80  64  58 SE8       29.96S
ANDREWS AFB    MOSUNNY   83  64  52 SE10      29.96R
WILMINGTON DE  SUNNY     82  64  54 S9        29.98R
PHILADELPHIA   PTSUNNY   83  65  54 SE6       29.96S
WILDWOOD NJ*   SUNNY     79  61  53 E8        30.00R
ATLANTIC CITY  SUNNY     78  62  57 E7        29.99S
HENDERSON NC   PTSUNNY   85  69  58 S5        29.97F
GREENSBORO     PTSUNNY   88  69  53 SW8       29.98F
ROCKY MOUNT    SUNNY     87  70  56 CALM      29.96F
FAYETTEVILLE   PTSUNNY   89  74  60 S5        29.96S HX  98
CHARLOTTE      PTSUNNY   89  69  51 W7        30.00S
$$

VAZ100-202100-
MARINE

STATION/POSITION TIME  TEMP    WIND        PRES    WAVE   SWELL
                       AIR SEA DIR/SP/G            HT/PER HT/PER
                 (UTC) (F)     (DEG/KT/KT) (MB)    (FT/S) (FT/S)
44066 TX TWR #4  2000   72 73   50/ 14/ 16 1014.7F   3/ 6   2/ 6
CAPE MAY NJ      2000   75 81  110/  9/ 13 1014.9S
LEWES DE         2000   74 77  100/  8/ 11 1015.1R
15NM E FENWICK I 2000   74 76              1015.0F   3/ 6
OCEAN-CITY-INLET 2000   76 76   90/  5/  6 1014.9R
WACHAPREAGUE VA  2000   76 80   80/  7/ 11 1014.6F
THOMAS POINT MD  2000   78 79  200/ 10/ 11 1015.0F
GOOSES REEF MD   2000   79     200/ 12/ 14 1015.0F
COVE POINT MD    2000   77     200/ 12/ 14 1014.7R
SOLOMONS ISLAND  2000      81                N/A
BISHOPS HEAD MD  2000   80 81  180/  7/  9 1014.3R
PINEY POINT MD   2000          140/ 10/ 11   N/A
POTOMAC MD       2000   79     160/ 10/ 12 1014.0F
CAMBRIDGE MD     2000   83 78  100/  6/  9 1014.0F
LEWISETTA VA     2000   80 81  180/  9/ 11 1014.2R
RAPPAHANNOCK LGT 2000          150/  6/  7 1015.4R
STINGRAY PT      2000   79      CALM  /  4 1015.6S
YORK RVR RNG VA  2000   78     120/  4/  5 1014.5R
JAMESTOWN VA     2000   80     160/  4/  8   N/A
DOMINION TERM VA 2000   78      60/ 10/ 12 1014.8S
KIPTOPEKE VA     2000      83  170/  5/  7   N/A
CHES BAY BRIDGE  2000   76 78   70/  9/ 11 1014.2S
CAPE HENRY VA    2000   77      80/  8/  9 1013.6S
CHESAPEAKE LGHT  1900   75      60/  9/ 10 1015.4F
WILLOUBY STN VA  2000   77      80/  8/  9 1013.7R
S CRANEY ISL VA  2000           20/  6/  8 1014.1S
CAPE HENRY BUOY  2000      78                N/A     3/ 5
1ST LANDING BUOY 2000   77      90/  8/ 10 1014.4S
CAPE CHARLES BUO 2000      78                N/A     2/ 5   2/ 5
OFFSHORE WE BUOY 2000      78                N/A     3/ 6   3/ 6
64NM E OF VA BCH 2000   78 79   40/  8/ 10 1014.1F   3/ 5   3/ 5
DUCK PIER NC     2000   77 79   40/  9/ 10 1014.0S
44056 DUCK FRF   2000                        N/A     3/ 5
OREGON INLET NC  2000   80 81   30/  8/ 11 1014.6S
HATTERAS NC      2000   82 83   40/  4/  7 1015.2R
DIAMOND SHLS NC  2000   78     320/  6/  8 1014.7R   2/ 8   2/ 8
CAPE LOOKOUT NC  1900   82     170/  8/  9 1014.8F
$$


USA.gov is the U.S. government's official web portal to all federal, state and local government web resources and services.